"read_dt","SO2 (ppb)","flags","PMT voltage (V)","lamp voltage (V)","lamp intensity (Hz)","internal temp (C)","react chamber temp (C)","sample flow (l/min)","pres (mmHg)","SO2 bkg (ppb)","SO2 coefficient"
2015-05-06 00:00:00,1660E-3,5C000000,-0724,0835,12153,025.5,045.4,0.481,742.9,01.18,0.508
2015-05-06 00:01:00,1861E-3,5C000000,-0724,0833,11980,025.5,045.4,0.481,742.9,01.18,0.508
2015-05-06 00:02:00,1831E-3,5C000000,-0724,0834,12183,025.5,045.4,0.481,742.8,01.18,0.508
2015-05-06 00:03:00,1699E-3,5C000000,-0724,0834,12271,025.5,045.4,0.481,742.6,01.18,0.508
2015-05-06 00:04:00,1743E-3,5C000000,-0724,0834,12217,025.5,045.4,0.481,742.8,01.18,0.508
2015-05-06 00:05:00,1850E-3,5C000000,-0724,0834,12146,025.5,045.4,0.481,742.6,01.18,0.508
2015-05-06 00:06:00,1786E-3,5C000000,-0724,0833,12160,025.4,045.4,0.481,742.8,01.18,0.508
2015-05-06 00:07:00,1755E-3,5C000000,-0724,0834,12336,025.4,045.4,0.481,742.8,01.18,0.508
2015-05-06 00:08:00,1976E-3,5C000000,-0724,0834,12316,025.4,045.4,0.481,742.8,01.18,0.508
2015-05-06 00:09:00,1767E-3,5C000000,-0724,0834,12153,025.5,045.4,0.481,742.7,01.18,0.508
2015-05-06 00:10:00,1748E-3,5C000000,-0724,0834,12214,025.4,045.4,0.481,742.8,01.18,0.508
2015-05-06 00:11:00,1829E-3,5C000000,-0724,0833,12059,025.4,045.4,0.481,742.8,01.18,0.508
2015-05-06 00:12:00,1797E-3,5C000000,-0724,0834,12174,025.4,045.4,0.481,742.8,01.18,0.508
2015-05-06 00:13:00,1803E-3,5C000000,-0724,0834,12257,025.4,045.4,0.481,742.7,01.18,0.508
2015-05-06 00:14:00,1731E-3,5C000000,-0724,0833,11980,025.5,045.4,0.481,742.7,01.18,0.508
2015-05-06 00:15:00,1869E-3,5C000000,-0724,0834,12084,025.5,045.4,0.481,742.8,01.18,0.508
2015-05-06 00:16:00,1763E-3,5C000000,-0724,0834,12082,025.4,045.4,0.481,742.7,01.18,0.508
2015-05-06 00:17:00,1873E-3,5C000000,-0724,0834,12320,025.4,045.4,0.481,742.9,01.18,0.508
2015-05-06 00:18:00,1884E-3,5C000000,-0724,0834,12056,025.4,045.3,0.481,742.8,01.18,0.508
2015-05-06 00:19:00,1842E-3,5C000000,-0724,0834,12138,025.4,045.4,0.481,742.9,01.18,0.508
2015-05-06 00:20:00,1891E-3,5C000000,-0724,0834,12245,025.4,045.4,0.481,742.8,01.18,0.508
2015-05-06 00:21:00,1795E-3,5C000000,-0724,0834,12144,025.4,045.4,0.481,742.9,01.18,0.508
2015-05-06 00:22:00,1766E-3,5C000000,-0724,0834,12179,025.4,045.4,0.481,743.0,01.18,0.508
2015-05-06 00:23:00,1646E-3,5C000000,-0724,0834,12235,025.4,045.4,0.481,742.7,01.18,0.508
2015-05-06 00:24:00,1715E-3,5C000000,-0724,0834,12255,025.4,045.4,0.481,742.8,01.18,0.508
2015-05-06 00:25:00,1805E-3,5C000000,-0724,0834,12213,025.4,045.4,0.481,742.7,01.18,0.508
2015-05-06 00:26:00,1683E-3,5C000000,-0724,0834,12138,025.4,045.4,0.481,742.7,01.18,0.508
2015-05-06 00:27:00,1892E-3,5C000000,-0724,0834,12146,025.4,045.4,0.481,742.9,01.18,0.508
2015-05-06 00:28:00,1755E-3,5C000000,-0724,0834,12193,025.4,045.4,0.481,742.8,01.18,0.508
2015-05-06 00:29:00,1877E-3,5C000000,-0724,0834,12151,025.4,045.3,0.481,742.9,01.18,0.508
2015-05-06 00:30:00,1765E-3,5C000000,-0724,0834,12051,025.4,045.4,0.481,742.8,01.18,0.508
2015-05-06 00:31:00,1766E-3,5C000000,-0724,0833,12115,025.4,045.4,0.481,742.7,01.18,0.508
2015-05-06 00:32:00,1915E-3,5C000000,-0724,0833,12246,025.4,045.4,0.481,742.8,01.18,0.508
2015-05-06 00:33:00,1827E-3,5C000000,-0724,0834,12034,025.4,045.4,0.481,742.8,01.18,0.508
2015-05-06 00:34:00,1749E-3,5C000000,-0724,0834,12032,025.4,045.4,0.481,742.7,01.18,0.508
2015-05-06 00:35:00,1736E-3,5C000000,-0724,0834,12261,025.4,045.4,0.481,742.7,01.18,0.508
2015-05-06 00:36:00,1754E-3,5C000000,-0724,0834,12326,025.4,045.4,0.481,742.8,01.18,0.508
2015-05-06 00:37:00,1833E-3,5C000000,-0724,0834,12171,025.4,045.4,0.481,742.8,01.18,0.508
2015-05-06 00:38:00,1721E-3,5C000000,-0724,0834,12240,025.4,045.4,0.481,742.7,01.18,0.508
2015-05-06 00:39:00,1596E-3,5C000000,-0724,0833,12052,025.4,045.4,0.481,742.9,01.18,0.508
2015-05-06 00:40:00,1892E-3,5C000000,-0724,0835,12194,025.4,045.4,0.481,742.7,01.18,0.508
2015-05-06 00:41:00,1736E-3,5C000000,-0724,0834,12129,025.4,045.4,0.481,742.7,01.18,0.508
2015-05-06 00:42:00,1695E-3,5C000000,-0724,0834,12108,025.4,045.4,0.481,742.7,01.18,0.508
2015-05-06 00:43:00,1829E-3,5C000000,-0724,0834,12267,025.4,045.3,0.481,742.8,01.18,0.508
2015-05-06 00:44:00,1641E-3,5C000000,-0724,0834,12175,025.4,045.4,0.481,742.7,01.18,0.508
2015-05-06 00:45:00,1831E-3,5C000000,-0724,0834,12067,025.4,045.4,0.481,742.7,01.18,0.508
2015-05-06 00:46:00,1670E-3,5C000000,-0724,0834,12174,025.4,045.4,0.481,742.8,01.18,0.508
2015-05-06 00:47:00,1781E-3,5C000000,-0724,0834,12179,025.4,045.4,0.481,742.7,01.18,0.508
2015-05-06 00:48:00,1657E-3,5C000000,-0724,0834,12096,025.4,045.4,0.481,742.7,01.18,0.508
2015-05-06 00:49:00,1680E-3,5C000000,-0724,0833,12164,025.4,045.4,0.481,742.6,01.18,0.508
2015-05-06 00:50:00,1779E-3,5C000000,-0724,0833,12186,025.4,045.4,0.481,742.6,01.18,0.508
2015-05-06 00:51:00,1809E-3,5C000000,-0724,0833,12165,025.4,045.4,0.481,742.7,01.18,0.508
2015-05-06 00:52:00,1845E-3,5C000000,-0724,0834,12054,025.4,045.4,0.481,742.8,01.18,0.508
2015-05-06 00:53:00,1890E-3,5C000000,-0724,0833,12184,025.4,045.4,0.481,742.9,01.18,0.508
2015-05-06 00:54:00,1906E-3,5C000000,-0724,0834,12242,025.4,045.4,0.481,742.8,01.18,0.508
2015-05-06 00:55:00,1861E-3,5C000000,-0724,0834,12265,025.4,045.4,0.482,742.7,01.18,0.508
2015-05-06 00:56:00,1866E-3,5C000000,-0724,0834,12225,025.4,045.4,0.481,742.7,01.18,0.508
2015-05-06 00:57:00,1894E-3,5C000000,-0724,0834,11904,025.4,045.4,0.481,742.7,01.18,0.508
2015-05-06 00:58:00,1763E-3,5C000000,-0724,0834,12197,025.4,045.4,0.481,742.6,01.18,0.508
2015-05-06 00:59:00,1764E-3,5C000000,-0724,0834,11963,025.4,045.4,0.481,742.4,01.18,0.508
2015-05-06 01:00:00,1729E-3,5C000000,-0724,0834,12254,025.4,045.4,0.481,742.5,01.18,0.508
2015-05-06 01:01:00,1712E-3,5C000000,-0724,0834,12226,025.4,045.4,0.481,742.5,01.18,0.508
2015-05-06 01:02:00,1731E-3,5C000000,-0724,0834,12149,025.4,045.4,0.481,742.4,01.18,0.508
2015-05-06 01:03:00,1785E-3,5C000000,-0724,0835,12134,025.4,045.4,0.481,742.4,01.18,0.508
2015-05-06 01:04:00,1777E-3,5C000000,-0724,0834,11969,025.4,045.4,0.481,742.3,01.18,0.508
2015-05-06 01:05:00,1825E-3,5C000000,-0724,0834,12117,025.4,045.4,0.481,742.3,01.18,0.508
2015-05-06 01:06:00,1755E-3,5C000000,-0724,0833,12229,025.4,045.4,0.481,742.5,01.18,0.508
2015-05-06 01:07:00,1742E-3,5C000000,-0724,0834,12133,025.4,045.4,0.481,742.4,01.18,0.508
2015-05-06 01:08:00,1823E-3,5C000000,-0724,0835,12146,025.4,045.4,0.481,742.4,01.18,0.508
2015-05-06 01:09:00,1844E-3,5C000000,-0724,0834,12091,025.5,045.4,0.481,742.4,01.18,0.508
2015-05-06 01:10:00,1864E-3,5C000000,-0724,0834,12230,025.4,045.4,0.481,741.9,01.18,0.508
2015-05-06 01:11:00,1785E-3,5C000000,-0724,0833,12140,025.4,045.4,0.481,742.4,01.18,0.508
2015-05-06 01:12:00,1723E-3,5C000000,-0724,0834,12189,025.4,045.4,0.481,742.2,01.18,0.508
2015-05-06 01:13:00,1753E-3,5C000000,-0724,0833,12154,025.4,045.4,0.481,742.4,01.18,0.508
2015-05-06 01:14:00,1789E-3,5C000000,-0724,0834,12098,025.4,045.4,0.481,742.4,01.18,0.508
2015-05-06 01:15:00,1696E-3,5C000000,-0724,0834,12147,025.4,045.4,0.481,742.3,01.18,0.508
2015-05-06 01:16:00,1781E-3,5C000000,-0724,0834,12208,025.4,045.4,0.481,742.4,01.18,0.508
2015-05-06 01:17:00,1819E-3,5C000000,-0724,0834,12195,025.4,045.4,0.481,742.4,01.18,0.508
2015-05-06 01:18:00,1824E-3,5C000000,-0724,0835,12264,025.4,045.4,0.481,742.4,01.18,0.508
2015-05-06 01:19:00,1700E-3,5C000000,-0724,0834,12251,025.4,045.4,0.481,742.4,01.18,0.508
2015-05-06 01:20:00,1666E-3,5C000000,-0724,0833,12250,025.4,045.4,0.481,742.4,01.18,0.508
2015-05-06 01:21:00,1775E-3,5C000000,-0724,0834,12256,025.4,045.4,0.481,742.3,01.18,0.508
2015-05-06 01:22:00,1705E-3,5C000000,-0724,0834,12067,025.4,045.4,0.481,742.3,01.18,0.508
2015-05-06 01:23:00,1766E-3,5C000000,-0724,0835,12053,025.4,045.4,0.481,742.3,01.18,0.508
2015-05-06 01:24:00,1883E-3,5C000000,-0724,0834,12174,025.4,045.4,0.481,742.4,01.18,0.508
2015-05-06 01:25:00,1841E-3,5C000000,-0724,0834,12140,025.4,045.4,0.481,742.1,01.18,0.508
2015-05-06 01:26:00,1730E-3,5C000000,-0724,0834,12216,025.4,045.4,0.481,742.4,01.18,0.508
2015-05-06 01:27:00,1885E-3,5C000000,-0724,0834,12204,025.4,045.4,0.481,742.3,01.18,0.508
2015-05-06 01:28:00,1759E-3,5C000000,-0724,0834,12090,025.4,045.4,0.481,742.3,01.18,0.508
2015-05-06 01:29:00,1790E-3,5C000000,-0724,0834,12276,025.4,045.4,0.481,742.3,01.18,0.508
2015-05-06 01:30:00,1730E-3,5C000000,-0724,0834,12249,025.4,045.4,0.481,742.3,01.18,0.508
2015-05-06 01:31:00,1723E-3,5C000000,-0724,0835,12297,025.4,045.4,0.481,742.4,01.18,0.508
2015-05-06 01:32:00,1784E-3,5C000000,-0724,0834,12262,025.4,045.4,0.481,742.4,01.18,0.508
2015-05-06 01:33:00,1875E-3,5C000000,-0724,0834,12128,025.4,045.4,0.481,742.3,01.18,0.508
2015-05-06 01:34:00,1830E-3,5C000000,-0724,0834,12310,025.5,045.4,0.481,742.3,01.18,0.508
2015-05-06 01:35:00,1869E-3,5C000000,-0724,0833,11992,025.5,045.4,0.481,742.2,01.18,0.508
2015-05-06 01:36:00,1839E-3,5C000000,-0724,0835,12202,025.4,045.4,0.481,742.2,01.18,0.508
2015-05-06 01:37:00,1722E-3,5C000000,-0724,0834,12281,025.5,045.4,0.480,742.1,01.18,0.508
2015-05-06 01:38:00,1772E-3,5C000000,-0724,0833,12071,025.4,045.4,0.481,742.2,01.18,0.508
2015-05-06 01:39:00,1902E-3,5C000000,-0724,0833,12180,025.4,045.4,0.481,742.2,01.18,0.508
2015-05-06 01:40:00,1694E-3,5C000000,-0724,0834,12173,025.4,045.4,0.481,742.1,01.18,0.508
2015-05-06 01:41:00,1691E-3,5C000000,-0724,0833,12007,025.5,045.4,0.481,742.1,01.18,0.508
2015-05-06 01:42:00,1902E-3,5C000000,-0724,0834,12224,025.4,045.4,0.481,742.1,01.18,0.508
2015-05-06 01:43:00,1577E-3,5C000000,-0724,0833,12096,025.4,045.4,0.481,742.2,01.18,0.508
2015-05-06 01:44:00,1914E-3,5C000000,-0724,0833,12040,025.4,045.4,0.481,742.0,01.18,0.508
2015-05-06 01:45:00,1819E-3,5C000000,-0724,0834,12167,025.4,045.4,0.481,741.9,01.18,0.508
2015-05-06 01:46:00,1883E-3,5C000000,-0724,0834,12098,025.4,045.4,0.481,742.0,01.18,0.508
2015-05-06 01:47:00,1838E-3,5C000000,-0724,0834,12188,025.5,045.4,0.481,741.8,01.18,0.508
2015-05-06 01:48:00,1950E-3,5C000000,-0724,0834,12215,025.4,045.4,0.481,741.7,01.18,0.508
2015-05-06 01:49:00,1742E-3,5C000000,-0724,0834,12084,025.5,045.4,0.480,741.7,01.18,0.508
2015-05-06 01:50:00,1870E-3,5C000000,-0724,0834,12254,025.4,045.4,0.480,741.7,01.18,0.508
2015-05-06 01:51:00,1849E-3,5C000000,-0724,0834,12065,025.4,045.4,0.481,741.7,01.18,0.508
2015-05-06 01:52:00,1703E-3,5C000000,-0724,0833,12191,025.4,045.4,0.481,741.4,01.18,0.508
2015-05-06 01:53:00,1816E-3,5C000000,-0724,0834,12072,025.4,045.4,0.481,741.4,01.18,0.508
2015-05-06 01:54:00,1779E-3,5C000000,-0724,0834,11983,025.4,045.4,0.481,741.4,01.18,0.508
2015-05-06 01:55:00,1671E-3,5C000000,-0724,0834,12235,025.4,045.4,0.481,741.0,01.18,0.508
2015-05-06 01:56:00,1740E-3,5C000000,-0724,0833,12211,025.5,045.4,0.480,740.8,01.18,0.508
2015-05-06 01:57:00,1785E-3,5C000000,-0724,0835,12176,025.5,045.4,0.480,740.6,01.18,0.508
2015-05-06 01:58:00,1796E-3,5C000000,-0724,0834,12271,025.4,045.4,0.480,740.6,01.18,0.508
2015-05-06 01:59:00,1730E-3,5C000000,-0724,0833,12104,025.4,045.3,0.480,740.6,01.18,0.508
2015-05-06 02:00:00,1703E-3,5C000000,-0724,0834,12192,025.5,045.4,0.480,740.2,01.18,0.508
2015-05-06 02:01:00,1789E-3,5C000000,-0724,0833,12225,025.4,045.4,0.480,740.6,01.18,0.508
2015-05-06 02:02:00,1895E-3,5C000000,-0724,0834,12247,025.4,045.4,0.480,740.1,01.18,0.508
2015-05-06 02:03:00,1798E-3,5C000000,-0724,0834,12107,025.4,045.4,0.480,740.6,01.18,0.508
2015-05-06 02:04:00,1821E-3,5C000000,-0724,0833,12202,025.5,045.4,0.480,740.6,01.18,0.508
2015-05-06 02:05:00,1811E-3,5C000000,-0724,0834,12137,025.4,045.4,0.480,740.0,01.18,0.508
2015-05-06 02:06:00,1774E-3,5C000000,-0724,0834,11941,025.4,045.4,0.480,740.0,01.18,0.508
2015-05-06 02:07:00,1830E-3,5C000000,-0724,0834,12102,025.4,045.4,0.480,740.1,01.18,0.508
2015-05-06 02:08:00,1858E-3,5C000000,-0724,0834,12244,025.5,045.4,0.480,740.0,01.18,0.508
2015-05-06 02:09:00,1761E-3,5C000000,-0724,0834,12099,025.4,045.4,0.480,739.9,01.18,0.508
2015-05-06 02:10:00,1713E-3,5C000000,-0724,0833,12163,025.5,045.4,0.480,739.9,01.18,0.508
2015-05-06 02:11:00,1711E-3,5C000000,-0724,0834,12118,025.4,045.4,0.479,739.7,01.18,0.508
2015-05-06 02:12:00,1766E-3,5C000000,-0724,0834,11975,025.4,045.4,0.479,739.6,01.18,0.508
2015-05-06 02:13:00,1701E-3,5C000000,-0724,0834,12145,025.4,045.4,0.480,739.5,01.18,0.508
2015-05-06 02:14:00,1732E-3,5C000000,-0724,0834,12074,025.4,045.4,0.480,739.6,01.18,0.508
2015-05-06 02:15:00,1754E-3,5C000000,-0724,0833,12046,025.4,045.4,0.480,739.6,01.18,0.508
2015-05-06 02:16:00,1787E-3,5C000000,-0724,0834,12262,025.4,045.4,0.480,739.9,01.18,0.508
2015-05-06 02:17:00,1758E-3,5C000000,-0724,0834,12166,025.4,045.4,0.480,739.8,01.18,0.508
2015-05-06 02:18:00,1789E-3,5C000000,-0724,0834,12139,025.4,045.4,0.480,739.8,01.18,0.508
2015-05-06 02:19:00,1740E-3,5C000000,-0724,0834,12205,025.4,045.4,0.480,739.9,01.18,0.508
2015-05-06 02:20:00,1763E-3,5C000000,-0724,0834,12188,025.4,045.4,0.480,739.7,01.18,0.508
2015-05-06 02:21:00,1704E-3,5C000000,-0724,0835,12034,025.4,045.4,0.480,740.3,01.18,0.508
2015-05-06 02:22:00,1840E-3,5C000000,-0724,0833,12242,025.4,045.4,0.480,740.1,01.18,0.508
2015-05-06 02:23:00,1722E-3,5C000000,-0724,0833,12128,025.4,045.4,0.480,739.9,01.18,0.508
2015-05-06 02:24:00,1709E-3,5C000000,-0724,0833,12121,025.4,045.4,0.480,740.0,01.18,0.508
2015-05-06 02:25:00,1889E-3,5C000000,-0724,0834,12184,025.4,045.4,0.480,740.2,01.18,0.508
2015-05-06 02:26:00,1782E-3,5C000000,-0724,0834,12241,025.4,045.4,0.480,740.5,01.18,0.508
2015-05-06 02:27:00,1838E-3,5C000000,-0724,0833,12267,025.4,045.4,0.480,740.0,01.18,0.508
2015-05-06 02:28:00,1734E-3,5C000000,-0724,0833,12059,025.4,045.4,0.480,740.6,01.18,0.508
2015-05-06 02:29:00,1857E-3,5C000000,-0724,0834,12157,025.4,045.4,0.480,740.3,01.18,0.508
2015-05-06 02:30:00,1865E-3,5C000000,-0724,0834,12134,025.4,045.4,0.480,740.5,01.18,0.508
2015-05-06 02:31:00,1910E-3,5C000000,-0724,0833,12176,025.4,045.4,0.480,739.9,01.18,0.508
2015-05-06 02:32:00,1832E-3,5C000000,-0724,0834,12148,025.4,045.4,0.480,740.1,01.18,0.508
2015-05-06 02:33:00,1823E-3,5C000000,-0724,0834,12130,025.4,045.4,0.480,740.1,01.18,0.508
2015-05-06 02:34:00,1830E-3,5C000000,-0724,0834,12001,025.4,045.4,0.480,739.8,01.18,0.508
2015-05-06 02:35:00,1885E-3,5C000000,-0724,0834,12197,025.4,045.4,0.480,740.0,01.18,0.508
2015-05-06 02:36:00,1908E-3,5C000000,-0724,0834,12163,025.4,045.4,0.480,740.4,01.18,0.508
2015-05-06 02:37:00,1734E-3,5C000000,-0724,0833,12118,025.4,045.4,0.480,740.5,01.18,0.508
2015-05-06 02:38:00,1765E-3,5C000000,-0724,0834,12145,025.4,045.4,0.480,740.0,01.18,0.508
2015-05-06 02:39:00,1956E-3,5C000000,-0724,0834,12043,025.4,045.4,0.480,740.1,01.18,0.508
2015-05-06 02:40:00,1766E-3,5C000000,-0724,0834,12128,025.4,045.4,0.480,740.4,01.18,0.508
2015-05-06 02:41:00,1701E-3,5C000000,-0724,0833,12161,025.4,045.4,0.480,740.6,01.18,0.508
2015-05-06 02:42:00,1837E-3,5C000000,-0724,0834,12131,025.4,045.4,0.481,740.6,01.18,0.508
2015-05-06 02:43:00,1862E-3,5C000000,-0724,0834,12381,025.4,045.4,0.480,740.6,01.18,0.508
2015-05-06 02:44:00,1798E-3,5C000000,-0724,0834,12003,025.4,045.4,0.480,740.6,01.18,0.508
2015-05-06 02:45:00,1861E-3,5C000000,-0724,0835,12138,025.4,045.3,0.480,740.6,01.18,0.508
2015-05-06 02:46:00,1809E-3,5C000000,-0724,0836,12110,025.4,045.4,0.481,740.6,01.18,0.508
2015-05-06 02:47:00,1838E-3,5C000000,-0724,0833,12054,025.4,045.4,0.481,740.6,01.18,0.508
2015-05-06 02:48:00,1876E-3,5C000000,-0724,0833,12092,025.4,045.4,0.481,740.6,01.18,0.508
2015-05-06 02:49:00,1908E-3,5C000000,-0724,0834,12098,025.4,045.4,0.480,740.4,01.18,0.508
2015-05-06 02:50:00,1652E-3,5C000000,-0724,0834,12230,025.4,045.4,0.480,740.0,01.18,0.508
2015-05-06 02:51:00,1802E-3,5C000000,-0724,0834,12205,025.4,045.4,0.480,740.5,01.18,0.508
2015-05-06 02:52:00,1755E-3,5C000000,-0724,0834,12266,025.4,045.4,0.480,739.7,01.18,0.508
2015-05-06 02:53:00,1894E-3,5C000000,-0724,0834,12099,025.4,045.4,0.480,739.8,01.18,0.508
2015-05-06 02:54:00,1808E-3,5C000000,-0724,0834,12333,025.4,045.4,0.480,739.8,01.18,0.508
2015-05-06 02:55:00,1880E-3,5C000000,-0724,0834,12075,025.4,045.4,0.480,740.4,01.18,0.508
2015-05-06 02:56:00,1725E-3,5C000000,-0724,0833,12190,025.4,045.4,0.480,740.1,01.18,0.508
2015-05-06 02:57:00,1908E-3,5C000000,-0724,0834,12082,025.4,045.4,0.480,739.8,01.18,0.508
2015-05-06 02:58:00,1786E-3,5C000000,-0724,0834,12149,025.4,045.4,0.480,739.6,01.18,0.508
2015-05-06 02:59:00,1813E-3,5C000000,-0724,0834,12052,025.4,045.4,0.480,739.9,01.18,0.508
2015-05-06 03:00:00,1853E-3,5C000000,-0724,0834,12145,025.4,045.4,0.480,740.4,01.18,0.508
2015-05-06 03:01:00,1774E-3,5C000000,-0724,0834,12192,025.4,045.4,0.480,739.9,01.18,0.508
2015-05-06 03:02:00,1818E-3,5C000000,-0724,0834,12173,025.4,045.4,0.480,739.8,01.18,0.508
2015-05-06 03:03:00,1841E-3,5C000000,-0724,0834,12023,025.4,045.4,0.480,739.9,01.18,0.508
2015-05-06 03:04:00,1776E-3,5C000000,-0724,0834,12224,025.4,045.4,0.480,739.7,01.18,0.508
2015-05-06 03:05:00,1842E-3,5C000000,-0724,0834,12226,025.5,045.4,0.480,739.5,01.18,0.508
2015-05-06 03:06:00,1900E-3,5C000000,-0724,0834,12199,025.5,045.4,0.480,739.4,01.18,0.508
2015-05-06 03:07:00,1761E-3,5C000000,-0724,0835,12120,025.4,045.4,0.479,739.2,01.18,0.508
2015-05-06 03:08:00,1759E-3,5C000000,-0724,0834,12012,025.5,045.4,0.480,739.3,01.18,0.508
2015-05-06 03:09:00,1836E-3,5C000000,-0724,0835,12145,025.4,045.4,0.480,739.4,01.18,0.508
2015-05-06 03:10:00,1951E-3,5C000000,-0724,0834,12164,025.4,045.4,0.480,739.1,01.18,0.508
2015-05-06 03:11:00,1795E-3,5C000000,-0724,0834,11949,025.5,045.4,0.479,739.0,01.18,0.508
2015-05-06 03:12:00,1813E-3,5C000000,-0724,0834,12085,025.4,045.4,0.480,738.7,01.18,0.508
2015-05-06 03:13:00,1899E-3,5C000000,-0724,0834,12220,025.4,045.4,0.480,738.5,01.18,0.508
2015-05-06 03:14:00,1814E-3,5C000000,-0724,0834,12295,025.5,045.4,0.479,738.5,01.18,0.508
2015-05-06 03:15:00,1860E-3,5C000000,-0724,0834,12183,025.5,045.4,0.479,738.3,01.18,0.508
2015-05-06 03:16:00,1680E-3,5C000000,-0724,0834,12088,025.5,045.4,0.480,738.5,01.18,0.508
2015-05-06 03:17:00,1839E-3,5C000000,-0724,0834,12081,025.5,045.4,0.480,738.9,01.18,0.508
2015-05-06 03:18:00,1863E-3,5C000000,-0724,0834,12219,025.5,045.4,0.479,738.6,01.18,0.508
2015-05-06 03:19:00,1865E-3,5C000000,-0724,0834,12175,025.5,045.4,0.480,739.2,01.18,0.508
2015-05-06 03:20:00,1679E-3,5C000000,-0724,0834,12074,025.5,045.4,0.480,739.4,01.18,0.508
2015-05-06 03:21:00,1748E-3,5C000000,-0724,0834,12146,025.5,045.4,0.479,738.6,01.18,0.508
2015-05-06 03:22:00,1888E-3,5C000000,-0724,0834,12185,025.5,045.4,0.480,739.1,01.18,0.508
2015-05-06 03:23:00,1864E-3,5C000000,-0724,0834,12166,025.5,045.4,0.480,739.1,01.18,0.508
2015-05-06 03:24:00,1785E-3,5C000000,-0724,0833,12191,025.5,045.4,0.480,738.6,01.18,0.508
2015-05-06 03:25:00,1901E-3,5C000000,-0724,0833,12184,025.5,045.4,0.479,739.0,01.18,0.508
2015-05-06 03:26:00,2026E-3,5C000000,-0724,0834,12164,025.5,045.4,0.480,739.5,01.18,0.508
2015-05-06 03:27:00,1833E-3,5C000000,-0724,0834,12077,025.5,045.4,0.480,739.4,01.18,0.508
2015-05-06 03:28:00,1963E-3,5C000000,-0724,0833,11986,025.5,045.4,0.479,739.5,01.18,0.508
2015-05-06 03:29:00,1817E-3,5C000000,-0724,0834,12233,025.5,045.4,0.480,739.5,01.18,0.508
2015-05-06 03:30:00,1933E-3,5C000000,-0724,0834,12316,025.5,045.4,0.480,739.2,01.18,0.508
2015-05-06 03:31:00,1855E-3,5C000000,-0724,0834,12239,025.5,045.4,0.480,739.6,01.18,0.508
2015-05-06 03:32:00,1900E-3,5C000000,-0724,0834,11998,025.5,045.4,0.479,739.5,01.18,0.508
2015-05-06 03:33:00,1877E-3,5C000000,-0724,0834,12241,025.5,045.4,0.480,739.8,01.18,0.508
2015-05-06 03:34:00,1939E-3,5C000000,-0724,0834,12183,025.5,045.4,0.480,739.6,01.18,0.508
2015-05-06 03:35:00,1838E-3,5C000000,-0724,0834,12143,025.5,045.4,0.480,739.8,01.18,0.508
2015-05-06 03:36:00,1771E-3,5C000000,-0724,0834,12143,025.5,045.4,0.479,739.5,01.18,0.508
2015-05-06 03:37:00,1816E-3,5C000000,-0724,0834,12285,025.5,045.4,0.480,739.6,01.18,0.508
2015-05-06 03:38:00,1991E-3,5C000000,-0724,0833,12103,025.5,045.4,0.480,739.6,01.18,0.508
2015-05-06 03:39:00,2012E-3,5C000000,-0724,0833,12090,025.5,045.4,0.479,739.3,01.18,0.508
2015-05-06 03:40:00,2048E-3,5C000000,-0724,0833,12213,025.5,045.4,0.479,739.2,01.18,0.508
2015-05-06 03:41:00,1913E-3,5C000000,-0724,0834,12232,025.5,045.4,0.480,739.8,01.18,0.508
2015-05-06 03:42:00,1833E-3,5C000000,-0724,0834,12264,025.5,045.4,0.480,739.8,01.18,0.508
2015-05-06 03:43:00,1935E-3,5C000000,-0724,0834,12208,025.5,045.4,0.480,740.1,01.18,0.508
2015-05-06 03:44:00,1827E-3,5C000000,-0724,0834,12193,025.5,045.4,0.480,740.0,01.18,0.508
2015-05-06 03:45:00,1914E-3,5C000000,-0724,0834,12097,025.5,045.4,0.480,740.5,01.18,0.508
2015-05-06 03:46:00,1968E-3,5C000000,-0724,0834,12191,025.5,045.4,0.480,739.7,01.18,0.508
2015-05-06 03:47:00,1900E-3,5C000000,-0724,0833,12096,025.5,045.4,0.480,740.5,01.18,0.508
2015-05-06 03:48:00,1946E-3,5C000000,-0724,0833,12355,025.5,045.4,0.480,740.5,01.18,0.508
2015-05-06 03:49:00,1789E-3,5C000000,-0724,0834,12249,025.5,045.4,0.480,740.5,01.18,0.508
2015-05-06 03:50:00,1997E-3,5C000000,-0724,0833,12289,025.5,045.4,0.480,740.6,01.18,0.508
2015-05-06 03:51:00,1934E-3,5C000000,-0724,0834,12224,025.5,045.3,0.480,740.2,01.18,0.508
2015-05-06 03:52:00,1976E-3,5C000000,-0724,0834,12158,025.5,045.4,0.480,740.6,01.18,0.508
2015-05-06 03:53:00,1776E-3,5C000000,-0724,0834,12136,025.5,045.4,0.480,740.6,01.18,0.508
2015-05-06 03:54:00,1934E-3,5C000000,-0724,0834,12165,025.6,045.4,0.480,740.5,01.18,0.508
2015-05-06 03:55:00,1817E-3,5C000000,-0724,0835,12281,025.6,045.4,0.480,740.6,01.18,0.508
2015-05-06 03:56:00,1945E-3,5C000000,-0724,0834,12119,025.6,045.4,0.480,740.4,01.18,0.508
2015-05-06 03:57:00,1843E-3,5C000000,-0724,0833,12112,025.6,045.4,0.480,740.3,01.18,0.508
2015-05-06 03:58:00,1906E-3,5C000000,-0724,0833,12240,025.6,045.4,0.480,740.5,01.18,0.508
2015-05-06 03:59:00,1808E-3,5C000000,-0724,0834,12190,025.6,045.4,0.480,740.5,01.18,0.508
2015-05-06 04:00:00,1977E-3,5C000000,-0724,0833,12120,025.6,045.4,0.480,740.1,01.18,0.508
2015-05-06 04:01:00,1988E-3,5C000000,-0724,0834,12222,025.6,045.4,0.480,740.5,01.18,0.508
2015-05-06 04:02:00,1962E-3,5C000000,-0724,0834,12196,025.6,045.4,0.480,739.7,01.18,0.508
2015-05-06 04:03:00,2043E-3,5C000000,-0724,0834,12101,025.6,045.4,0.480,740.0,01.18,0.508
2015-05-06 04:04:00,1941E-3,5C000000,-0724,0833,12226,025.6,045.4,0.480,740.1,01.18,0.508
2015-05-06 04:05:00,2033E-3,5C000000,-0724,0835,12235,025.6,045.4,0.480,740.0,01.18,0.508
2015-05-06 04:06:00,1992E-3,5C000000,-0724,0834,12165,025.6,045.4,0.480,739.6,01.18,0.508
2015-05-06 04:07:00,2067E-3,5C000000,-0724,0834,12038,025.6,045.4,0.479,739.7,01.18,0.508
2015-05-06 04:08:00,1982E-3,5C000000,-0724,0835,11981,025.6,045.4,0.480,740.5,01.18,0.508
2015-05-06 04:09:00,1968E-3,5C000000,-0724,0835,12064,025.6,045.4,0.480,739.7,01.18,0.508
2015-05-06 04:10:00,2072E-3,5C000000,-0724,0835,12235,025.6,045.4,0.480,740.0,01.18,0.508
2015-05-06 04:11:00,2120E-3,5C000000,-0724,0834,12207,025.6,045.4,0.479,740.1,01.18,0.508
2015-05-06 04:12:00,1879E-3,5C000000,-0724,0834,12028,025.6,045.4,0.480,740.0,01.18,0.508
2015-05-06 04:13:00,2003E-3,5C000000,-0724,0833,12173,025.6,045.4,0.480,739.7,01.18,0.508
2015-05-06 04:14:00,1922E-3,5C000000,-0724,0834,12108,025.6,045.4,0.480,739.8,01.18,0.508
2015-05-06 04:15:00,2070E-3,5C000000,-0724,0834,12236,025.6,045.4,0.479,739.2,01.18,0.508
2015-05-06 04:16:00,2065E-3,5C000000,-0724,0834,12132,025.6,045.4,0.480,739.9,01.18,0.508
2015-05-06 04:17:00,1977E-3,5C000000,-0724,0834,12121,025.6,045.4,0.480,739.7,01.18,0.508
2015-05-06 04:18:00,1910E-3,5C000000,-0724,0835,12284,025.6,045.4,0.480,739.8,01.18,0.508
2015-05-06 04:19:00,2064E-3,5C000000,-0724,0834,12067,025.6,045.4,0.480,740.1,01.18,0.508
2015-05-06 04:20:00,1935E-3,5C000000,-0724,0834,12267,025.6,045.4,0.480,739.9,01.18,0.508